patek.com alexa rank chart, patek.com alexa rank daily changes

patek.com alexa rank chart, patek.com alexa rank daily changes

patek.com
Actual rank:
59 998

RANK HISTORY

Date Rank Diff
2018/01/23 59 998 +1 798
2018/01/22 58 200 +332
2018/01/21 57 868 +70
2018/01/20 57 798 -709
2018/01/19 58 507 +880
2018/01/18 57 627 +2 026
2018/01/17 55 601 +1 523
2018/01/16 54 078 -754
2018/01/15 54 832 +394
2018/01/14 54 438 +127
2018/01/13 54 311 +956
2018/01/12 53 355 +259
2018/01/11 53 096 +592
2018/01/10 52 504 -1 085
2018/01/09 53 589 -254
2018/01/08 53 843 -396
2018/01/07 54 239 +1 161
2018/01/06 53 078 +156
2018/01/05 52 922 +575
2018/01/04 52 347 +88
2018/01/03 52 259 +275
2018/01/02 51 984 +331
2018/01/01 51 653 +394
2017/12/31 51 259 -298
2017/12/30 51 557 -507
2017/12/29 52 064 +809
2017/12/28 51 255 +124
2017/12/27 51 131 -656
2017/12/26 51 787 -811
2017/12/25 52 598 -1 898
2017/12/24 54 496 -465
2017/12/23 54 961 -1 391
2017/12/22 56 352 -871
2017/12/21 57 223 -35
2017/12/20 57 258 -1 029
2017/12/19 58 287 -1 763
2017/12/18 60 050 -511
2017/12/17 60 561 -1 687
2017/12/16 62 248 +34
2017/12/15 62 214 +710
2017/12/14 61 504 +197
2017/12/13 61 307 -2 151
2017/12/12 63 458 -165
2017/12/11 63 623 +272
2017/12/10 63 351 -347
2017/12/09 63 698 -860
2017/12/08 64 558 -1 409
2017/12/07 65 967 -1 257
2017/12/06 67 224 -98
2017/12/05 67 322 +165
2017/12/04 67 157 +835
2017/12/03 66 322 -82
2017/12/02 66 404 -975
2017/12/01 67 379 +245
2017/11/30 67 134 +2 369
2017/11/29 64 765 -1 313
2017/11/28 66 078 +847
2017/11/27 65 231 +760
2017/11/26 64 471 -332
2017/11/25 64 803 +41
2017/11/24 64 762

WIDGET FOR YOUR SITE

DOMAINS WITH THE NEAREST RANK

Domain Rank
supervr.net 59 993
nxtcomicsclub.com 59 994
smile.co.uk 59 995
jovenesweb.com 59 996
gloria.hr 59 997
patek.com 59 998
7h5.space 59 999
cohet.org 60 000
youzy.cn 60 001
athome.lu 60 002
xbison.net 60 003

DOMAINS WITH THE NEAREST RANK BY TLD .com

Domain Rank
zjoxoxprgw.com 59 988
simplymeasured.com 59 990
almausuo3a.com 59 991
nxtcomicsclub.com 59 994
jovenesweb.com 59 996
patek.com 59 998
filegir.com 60 004
muse-themes.com 60 007
bianhua8.com 60 008
aec40f9e073ba6.com 60 009
imirante.com 60 010